Wind_Speed
20 21 24 27 27 28 31 32 34 34 38 41 43 44 45 44 47 47 48 51 55 60 63 68 64 64 63 67 65 62 67 72 76 62 60 70 68 63 50 51 54 50 46 44
21 23 26 30 30 31 33 34 36 37 38 41 46 49 51 52 54 57 59 62 65 68 71 74 76 76 75 76 77 70 69 73 64 61 65 71 70 67 66 77 77 65 50 47
24 27 28 31 32 34 34 33 36 41 46 50 52 55 58 60 63 65 68 73 77 80 82 84 85 85 83 81 88 88 87 85 86 86 80 76 78 79 79 78 74 62 50 46
24 26 26 28 31 34 37 38 43 48 52 55 58 61 65 69 73 76 79 82 83 84 84 83 80 77 73 69 68 69 67 64 71 80 87 84 80 83 81 80 72 62 51 51
24 26 29 30 34 39 43 45 49 53 56 60 64 67 70 75 80 82 82 79 75 70 65 61 55 46 40 36 34 34 37 39 39 43 51 60 67 70 74 78 75 65 57 49
28 29 32 36 39 42 47 51 55 59 62 66 70 72 74 79 79 74 66 59 52 45 41 38 38 41 44 41 39 37 37 36 37 37 36 37 41 50 57 64 68 67 64 53
29 31 35 38 41 44 49 54 58 62 65 69 74 79 80 74 63 53 44 38 36 38 40 43 46 48 49 50 50 47 45 46 46 39 34 35 35 37 41 48 58 61 60 58
32 34 39 42 44 47 52 57 62 66 70 76 81 80 71 56 44 38 35 37 40 43 47 51 52 51 51 51 50 49 48 49 48 43 37 35 33 31 31 33 41 49 54 58
36 37 41 45 49 52 57 61 66 71 76 83 81 69 55 43 36 37 40 44 47 48 48 49 51 52 50 48 49 52 52 49 48 48 42 38 36 31 26 24 27 38 50 61
40 41 43 47 50 54 60 66 72 77 82 82 68 53 43 36 37 42 46 48 48 47 48 48 49 52 55 53 53 54 52 51 51 48 48 45 40 33 26 23 25 25 33 55
44 47 48 50 54 59 64 70 76 81 80 69 54 44 38 39 43 47 49 49 51 54 54 51 51 52 52 54 56 58 53 52 54 54 54 47 43 35 26 24 26 25 21 40
44 46 49 52 57 62 67 73 78 82 73 55 46 41 42 45 47 49 50 52 55 57 54 49 48 49 49 52 56 53 49 48 48 48 45 45 45 41 30 28 28 23 19 26
47 49 52 56 60 64 70 76 80 78 62 44 42 44 47 48 49 51 53 53 54 55 53 49 49 49 49 52 51 46 42 40 39 37 37 43 42 38 32 27 26 21 18 24
50 52 53 56 61 66 72 77 77 68 49 41 45 48 50 51 51 54 54 53 55 54 50 49 45 42 41 42 40 33 28 27 26 25 32 38 37 34 30 26 26 23 19 24
49 52 55 58 62 67 74 78 76 59 42 43 47 51 52 51 53 55 53 52 51 49 48 42 36 36 37 33 26 21 19 18 17 21 29 33 33 34 30 26 25 23 20 22
50 53 56 60 62 68 75 78 73 56 44 45 48 52 52 52 54 54 51 50 51 49 38 31 33 33 27 21 17 16 10 5 9 16 24 30 33 32 30 28 26 25 24 24
51 54 58 61 64 69 77 78 68 54 47 48 50 51 51 54 54 49 47 47 47 42 32 33 34 24 19 14 11 10 4 4 12 22 30 33 32 29 28 28 28 29 29 32
52 54 59 62 65 71 77 76 65 51 47 48 50 50 53 54 50 48 46 44 41 40 34 32 23 17 13 10 10 10 10 14 22 29 31 28 26 25 25 30 35 37 39 42
51 54 58 63 66 71 77 77 64 48 45 47 49 50 52 52 51 49 46 43 40 42 35 29 21 20 15 12 17 19 16 17 20 23 24 23 22 22 22 26 32 36 38 39
50 53 58 63 66 71 77 76 61 45 43 45 48 48 49 47 46 49 47 43 41 41 34 23 19 21 18 17 18 18 17 16 17 22 27 29 30 34 35 39 42 41 40 40
49 52 57 62 65 70 76 74 59 43 41 45 47 46 45 42 43 48 48 44 43 42 41 30 20 20 20 20 19 22 26 30 34 37 42 44 45 43 38 40 43 42 36 30
48 51 56 61 64 69 74 73 58 41 39 43 44 44 42 39 40 42 42 42 44 46 43 37 29 28 30 33 36 40 44 43 42 45 48 45 44 43 40 40 40 37 31 28
47 50 55 60 63 67 73 71 55 38 35 39 41 40 40 40 38 37 40 43 44 44 43 39 37 39 42 45 45 45 44 42 41 42 39 36 36 36 36 35 33 32 31 30
47 50 54 58 61 65 71 70 54 36 31 36 37 34 32 31 34 37 37 39 40 40 38 36 33 32 34 35 35 37 39 38 36 34 29 27 29 30 30 28 27 28 28 27
46 49 52 56 58 61 66 68 55 34 26 30 32 29 27 25 26 29 31 33 35 35 34 32 29 27 27 27 29 33 34 34 30 27 26 25 26 26 24 23 22 23 23 22
46 49 51 54 56 58 63 65 57 36 22 24 27 26 22 18 19 24 26 26 27 28 29 29 27 24 22 23 25 26 24 23 24 23 23 25 24 23 23 22 20 20 20 19
45 48 50 53 54 56 59 62 59 40 21 18 22 23 20 14 11 16 20 21 20 20 20 21 21 21 19 17 17 17 17 16 14 14 19 23 23 22 22 20 18 16 14 13
Wind_Direction
319 316 314 312 315 313 312 313 310 307 304 304 304 304 303 301 298 295 292 290 289 289 286 281 279 275 282 282 269 258 255 258 255 251 261 258 254 252 247 273 281 282 282 278
322 321 320 317 322 318 316 315 313 311 309 307 307 305 304 303 300 297 295 292 288 285 281 279 279 279 274 272 264 268 276 276 269 269 263 259 253 251 259 280 283 280 276 272
328 326 323 322 322 318 316 317 314 311 309 309 308 308 307 305 302 299 296 293 291 289 287 286 285 285 284 280 279 277 275 275 274 271 265 266 265 263 269 277 278 276 268 264
327 322 326 320 318 315 316 316 312 311 311 311 311 310 310 309 306 303 299 295 292 291 290 290 291 292 293 292 290 289 288 285 279 273 272 271 267 264 265 266 268 265 261 262
331 328 324 323 321 320 319 318 316 315 315 315 314 313 312 309 306 302 300 299 298 296 295 296 296 295 295 298 303 308 309 308 303 293 283 275 268 263 261 262 262 260 257 257
333 329 325 325 323 323 322 321 322 320 320 319 317 315 312 308 305 304 304 303 302 303 304 305 304 303 300 295 295 299 300 302 305 308 307 297 278 263 254 248 246 246 245 236
330 325 323 323 322 323 323 324 322 321 322 321 321 317 314 311 310 310 312 312 310 310 309 305 302 301 298 294 291 288 288 288 288 291 294 296 292 281 264 248 239 234 229 216
331 326 324 324 324 326 325 326 326 326 326 325 323 320 317 316 315 315 316 313 310 307 306 303 301 299 298 295 290 287 290 288 284 283 284 287 290 291 276 256 245 237 225 208
330 329 327 327 328 329 328 328 329 329 330 328 325 323 321 319 318 317 316 313 309 307 307 306 302 299 299 294 290 288 287 282 275 273 273 273 276 282 275 258 253 243 228 214
328 328 328 328 328 328 330 332 333 334 332 330 326 326 324 322 322 320 318 316 311 309 308 304 299 296 295 292 290 290 285 277 270 270 270 264 262 266 270 255 252 248 219 212
331 331 333 332 331 332 334 335 336 336 333 329 329 329 327 325 324 322 320 317 312 312 312 308 304 303 298 295 293 291 288 283 277 271 267 254 246 247 257 249 244 251 229 206
334 334 334 335 335 336 336 337 338 338 335 333 333 331 327 326 325 323 321 318 315 314 313 311 307 304 300 297 298 293 283 281 279 273 253 236 233 237 245 249 241 244 234 211
337 338 338 339 339 338 339 340 341 340 338 339 338 334 331 329 327 325 322 318 317 315 313 312 309 306 304 303 304 299 285 277 277 266 235 224 224 226 236 243 233 218 206 204
338 338 339 340 340 340 342 343 343 343 341 340 338 336 334 331 330 327 324 320 319 319 316 312 309 310 311 310 311 307 290 277 268 242 220 215 216 215 225 226 216 205 195 197
337 338 339 341 341 342 344 345 345 344 342 340 338 338 336 334 332 331 330 325 323 324 322 320 317 312 310 310 315 320 308 284 250 223 212 210 205 205 212 206 204 204 192 190
338 339 341 342 342 344 346 347 346 345 343 342 341 340 338 336 336 337 335 331 327 328 330 336 329 319 318 314 317 334 335 293 224 202 194 191 193 203 207 201 198 192 189 189
338 340 342 343 343 345 348 349 347 347 347 346 345 343 341 341 341 339 339 341 341 339 336 345 339 335 338 323 329 351 37 133 159 162 167 178 187 193 193 196 200 191 183 177
338 341 342 343 344 347 349 351 349 348 348 349 349 348 347 349 350 349 351 347 350 355 352 353 355 12 22 33 31 60 92 122 139 150 159 169 177 188 202 205 201 194 182 175
337 340 342 344 345 347 350 351 351 349 349 351 354 353 353 357 359 355 354 353 4 8 3 16 36 45 59 61 72 80 93 118 137 149 157 168 172 162 148 153 156 154 154 161
337 341 343 345 345 347 350 352 352 349 351 354 358 357 359 2 3 1 0 1 1 1 19 34 43 59 71 82 88 91 103 119 139 150 152 143 118 112 130 142 142 143 149 153
337 342 344 346 347 348 351 353 352 351 356 359 2 1 1 5 8 9 10 15 18 20 32 42 57 67 73 85 94 104 112 118 117 110 105 101 105 119 131 135 141 146 150 156
337 342 344 346 348 349 352 355 354 354 359 2 5 4 4 10 15 18 22 28 32 37 44 54 66 79 89 97 103 107 108 107 105 107 108 109 120 128 134 138 140 142 146 151
338 342 344 346 349 350 353 356 357 355 359 3 7 10 12 20 28 34 37 38 40 45 51 59 71 82 91 97 101 106 108 109 112 117 116 118 127 133 134 134 135 140 148 153
337 341 344 346 350 350 353 358 359 354 356 2 5 12 19 24 31 37 38 41 44 49 56 62 73 84 93 97 99 108 109 109 111 115 120 126 132 138 141 141 140 146 152 155
337 340 343 345 349 350 352 356 1 357 353 359 0 7 18 23 29 32 35 40 47 54 57 64 75 83 87 92 104 112 110 105 108 111 115 123 129 133 135 139 144 149 151 155
336 339 341 344 348 349 351 355 0 359 350 354 356 1 16 29 38 37 36 41 47 55 57 59 66 74 84 97 109 119 122 116 107 106 120 128 131 136 141 143 145 149 154 159
334 337 339 342 346 348 350 352 357 360 350 348 352 356 6 21 38 43 40 41 47 55 59 60 65 73 79 90 109 124 134 138 135 129 136 144 145 143 143 139 136 138 144 154
Height
5846 5842 5838 5834 5831 5828 5824 5820 5815 5810 5803 5795 5787 5781 5774 5768 5763 5758 5753 5746 5741 5735 5728 5722 5715 5713 5709 5704 5699 5696 5692 5688 5686 5687 5688 5688 5688 5689 5692 5696 5699 5701 5703 5706
5841 5838 5834 5828 5825 5820 5816 5812 5805 5799 5793 5786 5778 5770 5763 5756 5749 5743 5736 5730 5723 5716 5709 5702 5695 5688 5683 5681 5677 5673 5672 5670 5665 5665 5668 5667 5665 5668 5669 5673 5680 5683 5687 5690
5837 5832 5829 5822 5818 5812 5808 5805 5797 5789 5783 5774 5766 5757 5749 5742 5733 5725 5717 5707 5698 5689 5680 5672 5665 5658 5653 5648 5644 5640 5641 5643 5640 5641 5642 5642 5641 5643 5645 5649 5657 5663 5669 5674
5833 5829 5824 5821 5812 5806 5801 5796 5787 5779 5771 5761 5751 5742 5732 5721 5709 5701 5690 5679 5669 5659 5650 5644 5639 5633 5628 5623 5617 5613 5610 5609 5607 5607 5607 5608 5612 5617 5621 5627 5634 5640 5647 5655
5828 5823 5817 5812 5805 5797 5789 5783 5775 5765 5756 5746 5735 5726 5715 5700 5688 5675 5663 5652 5642 5633 5625 5621 5617 5612 5610 5607 5602 5598 5594 5589 5584 5581 5579 5578 5579 5581 5587 5596 5603 5613 5625 5637
5822 5817 5811 5805 5796 5787 5780 5770 5761 5750 5740 5730 5718 5709 5699 5681 5665 5652 5640 5630 5622 5616 5610 5606 5602 5599 5596 5592 5589 5586 5582 5578 5575 5573 5569 5563 5558 5556 5558 5564 5574 5585 5599 5616
5817 5811 5803 5797 5788 5781 5772 5763 5752 5739 5727 5714 5699 5684 5672 5657 5644 5631 5623 5616 5610 5605 5600 5595 5590 5586 5581 5576 5573 5570 5567 5565 5563 5561 5559 5555 5550 5544 5542 5544 5549 5557 5569 5585
5812 5805 5797 5787 5779 5771 5762 5749 5736 5724 5710 5695 5679 5661 5645 5634 5625 5617 5611 5605 5600 5595 5589 5582 5576 5570 5565 5560 5556 5553 5551 5550 5548 5546 5545 5544 5542 5537 5533 5532 5536 5541 5550 5561
5806 5800 5789 5778 5769 5759 5748 5736 5723 5709 5693 5675 5657 5642 5630 5621 5614 5608 5602 5595 5588 5581 5575 5568 5559 5551 5546 5542 5538 5534 5531 5529 5529 5529 5530 5532 5531 5532 5528 5526 5526 5528 5535 5542
5796 5789 5782 5772 5762 5751 5738 5723 5708 5692 5675 5656 5639 5628 5619 5612 5605 5599 5592 5584 5575 5568 5561 5553 5543 5534 5528 5523 5517 5512 5510 5509 5508 5510 5512 5516 5519 5522 5522 5521 5522 5523 5524 5532
5788 5779 5771 5762 5751 5738 5725 5710 5695 5678 5658 5640 5627 5619 5611 5604 5597 5588 5579 5571 5561 5552 5543 5534 5525 5518 5511 5503 5496 5491 5488 5487 5485 5487 5491 5498 5505 5511 5514 5515 5514 5516 5520 5527
5782 5774 5763 5753 5740 5726 5713 5699 5683 5666 5648 5632 5620 5612 5604 5595 5586 5576 5567 5557 5546 5535 5525 5516 5508 5501 5493 5485 5477 5470 5466 5465 5463 5462 5467 5477 5488 5498 5505 5506 5508 5510 5514 5521
5773 5764 5753 5742 5731 5718 5704 5688 5671 5652 5635 5625 5617 5606 5597 5587 5576 5565 5555 5543 5532 5520 5509 5500 5492 5484 5476 5468 5458 5450 5445 5445 5444 5443 5450 5461 5473 5485 5493 5497 5500 5507 5512 5519
5765 5756 5747 5737 5724 5710 5695 5678 5660 5643 5629 5619 5611 5601 5589 5577 5566 5554 5542 5530 5518 5505 5495 5486 5477 5469 5461 5453 5443 5436 5431 5430 5430 5432 5440 5451 5463 5474 5482 5488 5494 5502 5510 5517
5762 5751 5741 5729 5716 5702 5687 5669 5652 5636 5624 5616 5605 5593 5581 5567 5555 5542 5530 5517 5504 5492 5481 5472 5464 5457 5449 5441 5435 5428 5424 5421 5422 5426 5434 5444 5455 5466 5474 5483 5490 5495 5504 5514
5756 5745 5734 5722 5710 5695 5679 5661 5644 5630 5619 5610 5599 5586 5572 5559 5546 5533 5520 5505 5491 5480 5470 5462 5454 5446 5439 5435 5431 5426 5421 5419 5420 5424 5432 5442 5452 5460 5469 5477 5486 5493 5501 5510
5750 5739 5727 5715 5703 5688 5672 5654 5637 5624 5614 5604 5593 5580 5566 5552 5539 5526 5512 5498 5484 5472 5462 5455 5447 5440 5435 5430 5428 5425 5422 5421 5421 5425 5433 5443 5451 5459 5466 5474 5482 5493 5502 5510
5743 5733 5721 5709 5696 5683 5667 5649 5633 5620 5610 5600 5589 5575 5561 5548 5534 5520 5507 5493 5479 5467 5457 5449 5442 5437 5433 5430 5428 5426 5425 5426 5428 5432 5439 5447 5453 5459 5465 5472 5482 5492 5502 5513
5738 5728 5717 5704 5691 5677 5661 5645 5630 5617 5607 5597 5586 5573 5559 5545 5532 5520 5507 5492 5479 5469 5458 5448 5441 5438 5437 5435 5434 5433 5432 5434 5436 5441 5446 5450 5456 5461 5468 5476 5485 5494 5508 5522
5733 5724 5713 5701 5687 5672 5657 5641 5626 5614 5605 5596 5585 5572 5560 5549 5537 5524 5509 5497 5486 5472 5460 5452 5447 5445 5444 5443 5443 5443 5443 5443 5444 5446 5451 5456 5463 5471 5480 5489 5499 5512 5525 5535
5728 5719 5709 5697 5683 5668 5654 5639 5623 5613 5605 5595 5585 5573 5563 5553 5542 5530 5516 5505 5493 5480 5469 5460 5455 5454 5452 5451 5451 5451 5451 5452 5454 5458 5462 5468 5476 5486 5494 5503 5514 5525 5535 5543
5723 5715 5704 5693 5680 5665 5651 5636 5622 5611 5605 5596 5587 5577 5567 5560 5550 5539 5528 5516 5506 5496 5486 5477 5471 5467 5464 5463 5464 5465 5467 5469 5473 5478 5484 5490 5497 5505 5513 5520 5527 5534 5541 5548
5717 5709 5700 5689 5677 5663 5649 5635 5621 5611 5606 5599 5590 5582 5573 5566 5558 5549 5541 5531 5523 5516 5508 5501 5494 5490 5487 5486 5486 5486 5488 5491 5495 5499 5504 5510 5516 5522 5528 5534 5539 5544 5550 5556
5712 5704 5695 5685 5673 5661 5648 5635 5622 5612 5606 5601 5594 5588 5581 5576 5569 5560 5553 5547 5540 5533 5526 5520 5515 5513 5510 5509 5508 5509 5510 5512 5514 5517 5521 5526 5531 5535 5540 5544 5548 5553 5558 5562
5707 5699 5691 5681 5671 5660 5648 5635 5623 5614 5609 5604 5598 5593 5587 5582 5577 5571 5566 5559 5554 5549 5542 5537 5533 5530 5528 5527 5527 5528 5529 5531 5532 5534 5536 5538 5542 5545 5549 5552 5557 5560 5564 5567
5702 5694 5686 5677 5667 5657 5646 5634 5623 5614 5610 5605 5600 5595 5590 5587 5583 5579 5574 5570 5565 5560 5556 5551 5547 5544 5543 5542 5542 5542 5543 5544 5545 5546 5547 5548 5550 5553 5555 5558 5561 5565 5568 5572
5696 5689 5682 5673 5664 5654 5645 5634 5623 5614 5608 5605 5600 5596 5592 5589 5587 5584 5581 5578 5574 5570 5567 5563 5560 5557 5555 5554 5553 5551 5551 5551 5551 5551 5552 5554 5556 5558 5561 5564 5567 5569 5572 5574